Location: Hylvaty SDH
(49.9612°N, 16.4057°E)
Time: 20:09:35
(UTC+02:00)

Transit 4A - Pass Details

Date: 13 August 2020
Orbit: 862 x 982 km, 66.8° (Epoch: 28 September)

Event Time Altitude Azimuth Distance (km) Brightness Sun altitude
Rises 07:57:00 0° 157° (SSE) 3,486 11.2 20.3°
Reaches altitude 10° 08:00:35 10° 135° (SE) 2,576 11.1 20.9°
Maximum altitude 08:03:47 15° 102° (ESE) 2,262 12.3 21.4°
Drops below altitude 10° 08:07:02 10° 69° (ENE) 2,631 11.7 21.9°
Sets 08:10:44 0° 48° (NE) 3,607 11.6 22.5°
